(355053) = 2006 SR99

Discovered at Kitt Peak on 2006-09-18 by Spacewatch.

Orbit

Orbit type: Main Belt

Note: WebGL enabled browser required.

epoch2022-01-21.0
epoch JD2459600.5
perihelion date2018-04-24.51592
perihelion JD2458233.01592
argument of perihelion (°)184.41430
ascending node (°)23.10793
inclination (°)3.75318
eccentricity0.0316835
perihelion distance (AU)2.6784587
Tisserand w.r.t. Jupiter3.3
ΔV w.r.t. Earth (km/sec)10.3
semimajor axis (AU)2.7660982
mean anomaly (°)292.97106
mean daily motion (°/day)0.21424090
aphelion distance (AU)2.854
period (years)4.6
P-vector [x]-0.88689643
P-vector [y]-0.42181835
P-vector [z]-0.18837197
Q-vector [x]0.46125344
Q-vector [y]-0.78588698
Q-vector [z]-0.41185789
absolute magnitude17.19
phase slope0.15
uncertainty0
referenceMPO 698189
observations used163
oppositions12
arc length (days)7584
first opposition used2001
last opposition used2022
residual rms (arc-secs)0.85
perturbers coarse indicatorM-v
perturbers precise indicator003Ek
first observation date used2001-05-24.0
last observation date used2022-02-27.0
computer namePan
JD of orbit computation2456376.462167
perihelion JD uncertainty (days)6.4017E-04
argument of perihelion uncertainty (°)1.5684E-04
ascending node uncertainty (°)8.7792E-05
inclination uncertainty (°)7.7106E-06
eccentricity uncertainty 1.6655E-07
perihelion distance uncertainty (AU)4.8092E-07
Minimum Orbit Intersection Distances (in AU)
for orbit epoch: 2459600.5, reference: E2022-B04
Mercury2.22861
Venus1.95747
Earth1.67377
Mars1.03424
Jupiter2.09994
Saturn6.2765
Uranus15.7072
Neptune27.023

Observations

160 total observations over interval: 2001 05 24.35209 – 2022 02 27.247196
These data are available for download (format description).

Date (UT) J2000 RA J2000 Dec Magn Location Ref
2001 05 24.35209 23 18 14.70 -07 49 11.0 22.2 R 807 – Cerro Tololo Observatory, La Serena MPS 192299
2001 05 24.41992 23 18 18.83 -07 48 46.3   807 – Cerro Tololo Observatory, La Serena MPS 192299
2004 03 26.30366 12 18 13.16 +00 05 45.9 20.8 V 691 – Steward Observatory, Kitt Peak-Spacewatch MPS 192299
2004 03 26.33343 12 18 11.58 +00 05 53.3 20.7 V 691 – Steward Observatory, Kitt Peak-Spacewatch MPS 192299
2004 03 26.36567 12 18 09.87 +00 06 01.2 20.9 V 691 – Steward Observatory, Kitt Peak-Spacewatch MPS 192299
2006 09 18.43339 02 01 43.18 +12 04 31.4 21.5 V 691 – Steward Observatory, Kitt Peak-Spacewatch MPS 181329
2006 09 18.45078 02 01 42.65 +12 04 30.5 21.4 V 691 – Steward Observatory, Kitt Peak-Spacewatch MPS 181329
2006 09 18.46817 02 01 42.15 +12 04 28.3 21.5 V 691 – Steward Observatory, Kitt Peak-Spacewatch MPS 181329
2006 09 25.39146 01 57 55.04 +11 52 14.4 20.8 V G96 – Mt. Lemmon Survey MPS 181329
2006 09 25.39819 01 57 54.79 +11 52 12.6 21.3 V G96 – Mt. Lemmon Survey MPS 181329
2006 09 25.40488 01 57 54.57 +11 52 11.7 21.3 V G96 – Mt. Lemmon Survey MPS 181329
2006 09 25.41169 01 57 54.32 +11 52 10.8 21.7 V G96 – Mt. Lemmon Survey MPS 181329
2006 10 19.16830 01 39 10.27 +10 38 28.6 21.1 V 691 – Steward Observatory, Kitt Peak-Spacewatch MPS 184158
2006 10 19.17824 01 39 09.75 +10 38 26.6 21.0 V 691 – Steward Observatory, Kitt Peak-Spacewatch MPS 184158
2006 10 19.18818 01 39 09.19 +10 38 24.7 20.8 V 691 – Steward Observatory, Kitt Peak-Spacewatch MPS 184158
2006 10 23.16763 01 35 39.07 +10 23 30.1 21.1 V 691 – Steward Observatory, Kitt Peak-Spacewatch MPS 184158
2006 10 23.17759 01 35 38.53 +10 23 28.0 21.4 V 691 – Steward Observatory, Kitt Peak-Spacewatch MPS 184158
2006 10 23.18754 01 35 38.01 +10 23 25.8 20.9 V 691 – Steward Observatory, Kitt Peak-Spacewatch MPS 184158
2006 10 28.25446 01 31 15.85 +10 04 35.9 21.6 V G96 – Mt. Lemmon Survey MPS 185548
2006 10 28.26381 01 31 15.38 +10 04 34.4 21.6 V G96 – Mt. Lemmon Survey MPS 185548
2006 10 28.27316 01 31 14.84 +10 04 32.1 21.0 V G96 – Mt. Lemmon Survey MPS 185548
2006 10 28.28263 01 31 14.37 +10 04 30.0 21.5 V G96 – Mt. Lemmon Survey MPS 185548
2008 01 18.24930 08 26 41.01 +25 08 07.8 20.6 V 691 – Steward Observatory, Kitt Peak-Spacewatch MPS 234298
2008 01 18.26745 08 26 39.89 +25 08 11.6 20.9 V 691 – Steward Observatory, Kitt Peak-Spacewatch MPS 234298
2008 01 18.28560 08 26 38.80 +25 08 15.1 20.6 V 691 – Steward Observatory, Kitt Peak-Spacewatch MPS 234298
2008 02 09.26163 08 05 41.46 +26 00 50.6 21.3 V G96 – Mt. Lemmon Survey MPS 237594
2008 02 09.26822 08 05 41.10 +26 00 51.1 21.1 V G96 – Mt. Lemmon Survey MPS 237594
2008 02 09.27495 08 05 40.77 +26 00 51.6 21.6 V G96 – Mt. Lemmon Survey MPS 237594
2008 02 09.28160 08 05 40.38 +26 00 52.2 21.0 V G96 – Mt. Lemmon Survey MPS 237594
2011 10 25.42269 04 30 39.462 +24 53 21.24 21.8 w F51 – Pan-STARRS 1, Haleakala MPS 396331
2011 10 25.43724 04 30 38.995 +24 53 21.98 21.9 w F51 – Pan-STARRS 1, Haleakala MPS 396331
2011 10 25.46618 04 30 38.065 +24 53 23.11 21.8 w F51 – Pan-STARRS 1, Haleakala MPS 396331
2012 01 01.12507 03 36 56.44 +23 23 20.5 21.8 V G96 – Mt. Lemmon Survey MPS 405953
2012 01 01.13266 03 36 56.30 +23 23 20.5 21.2 V G96 – Mt. Lemmon Survey MPS 405953
2012 01 01.14024 03 36 56.05 +23 23 19.6 21.9 V G96 – Mt. Lemmon Survey MPS 405953
2012 01 01.14782 03 36 55.94 +23 23 18.8 22.2 V G96 – Mt. Lemmon Survey MPS 405953
2013 02 05.41151 11 20 22.18 +08 41 07.4 21.3 V 691 – Steward Observatory, Kitt Peak-Spacewatch MPS 453717
2013 02 05.42917 11 20 21.58 +08 41 11.1 21.1 V 691 – Steward Observatory, Kitt Peak-Spacewatch MPS 453717
2013 02 05.44684 11 20 20.99 +08 41 14.6 21.4 V 691 – Steward Observatory, Kitt Peak-Spacewatch MPS 453717
2013 02 14.34816 11 14 49.45 +09 15 12.4 20.8 V 691 – Steward Observatory, Kitt Peak-Spacewatch MPS 453717
2013 02 14.36582 11 14 48.63 +09 15 17.1 21.1 V 691 – Steward Observatory, Kitt Peak-Spacewatch MPS 453717
2013 02 14.38346 11 14 47.83 +09 15 21.3 21.4 V 691 – Steward Observatory, Kitt Peak-Spacewatch MPS 453717
2013 02 14.40065 11 14 47.345 +09 15 26.25 21.0 w F51 – Pan-STARRS 1, Haleakala MPS 453717
2013 02 14.41521 11 14 46.700 +09 15 30.04 21.0 w F51 – Pan-STARRS 1, Haleakala MPS 453717
2013 02 14.42983 11 14 46.041 +09 15 33.58 20.9 w F51 – Pan-STARRS 1, Haleakala MPS 453717
2013 02 14.44458 11 14 45.395 +09 15 37.26 20.9 w F51 – Pan-STARRS 1, Haleakala MPS 453717
2013 03 02.26849 11 01 54.62 +10 24 59.6 20.5 V G96 – Mt. Lemmon Survey MPS 459235
2013 03 02.27387 11 01 54.30 +10 25 01.3 20.3 V G96 – Mt. Lemmon Survey MPS 459235
2013 03 02.27925 11 01 54.01 +10 25 02.4 19.9 V G96 – Mt. Lemmon Survey MPS 459235
2013 03 02.28464 11 01 53.72 +10 25 03.9 19.9 V G96 – Mt. Lemmon Survey MPS 459235
2013 03 02.43961 11 01 45.33 +10 25 44.1 20.4 V G96 – Mt. Lemmon Survey MPS 459235
2013 03 02.44490 11 01 45.04 +10 25 45.4 20.8 V G96 – Mt. Lemmon Survey MPS 459235
2013 03 02.45020 11 01 44.76 +10 25 46.9 20.5 V G96 – Mt. Lemmon Survey MPS 459235
2013 03 02.45557 11 01 44.47 +10 25 48.5 20.4 V G96 – Mt. Lemmon Survey MPS 459235
2013 03 02.94767 11 01 18.86 +10 27 54.4   J95 – Great Shefford MPS 459235
2013 03 02.97099 11 01 17.59 +10 28 01.3   J95 – Great Shefford MPS 459235
2013 03 02.98908 11 01 16.67 +10 28 06.1 20.5 R J95 – Great Shefford MPS 459235
2013 03 18.25654 10 48 15.66 +11 26 00.0 19.9 V G96 – Mt. Lemmon Survey MPS 461641
2013 03 18.26350 10 48 15.37 +11 26 00.9 20.0 V G96 – Mt. Lemmon Survey MPS 461641
2013 03 18.27049 10 48 14.97 +11 26 02.2 20.7 V G96 – Mt. Lemmon Survey MPS 461641
2013 03 18.27743 10 48 14.65 +11 26 03.4 21.1 V G96 – Mt. Lemmon Survey MPS 461641
2015 07 23.56198 00 56 04.021 +03 38 09.10 22.1 w F51 – Pan-STARRS 1, Haleakala MPS 617510
2015 07 23.57392 00 56 04.303 +03 38 11.07 22.1 w F51 – Pan-STARRS 1, Haleakala MPS 617510
2015 07 23.58590 00 56 04.569 +03 38 13.02 22.3 w F51 – Pan-STARRS 1, Haleakala MPS 617510
2015 07 23.59791 00 56 04.880 +03 38 15.28 22.4 w F51 – Pan-STARRS 1, Haleakala MPS 617510
2015 09 11.46436 00 49 40.782 +03 20 24.37 21.3 w F51 – Pan-STARRS 1, Haleakala MPS 628497
2015 09 11.47636 00 49 40.289 +03 20 21.93 21.2 w F51 – Pan-STARRS 1, Haleakala MPS 628497
2015 09 11.48842 00 49 39.788 +03 20 19.59 21.2 w F51 – Pan-STARRS 1, Haleakala MPS 628497
2015 09 11.50208 00 49 39.214 +03 20 16.89 21.3 w F51 – Pan-STARRS 1, Haleakala MPS 628497
2015 09 18.39158 00 44 43.07 +02 55 42.1 21.4 V G96 – Mt. Lemmon Survey MPS 631761
2015 09 18.39669 00 44 42.78 +02 55 40.7 21.1 V G96 – Mt. Lemmon Survey MPS 631761
2015 09 18.40179 00 44 42.57 +02 55 40.3 20.8 V G96 – Mt. Lemmon Survey MPS 631761
2015 09 18.40691 00 44 42.30 +02 55 38.2 21.1 V G96 – Mt. Lemmon Survey MPS 631761
2015 10 10.34350 00 26 34.132 +01 26 56.68 20.9 w F51 – Pan-STARRS 1, Haleakala MPS 635368
2015 10 10.35540 00 26 33.516 +01 26 53.96 21.1 w F51 – Pan-STARRS 1, Haleakala MPS 635368
2015 10 10.36741 00 26 32.919 +01 26 51.17 21.0 w F51 – Pan-STARRS 1, Haleakala MPS 635368
2015 10 10.37944 00 26 32.300 +01 26 48.36 21.1 w F51 – Pan-STARRS 1, Haleakala MPS 635368
2015 10 13.36372 00 24 08.162 +01 15 33.98 21.3 w F51 – Pan-STARRS 1, Haleakala MPS 635368
2015 10 13.37584 00 24 07.558 +01 15 31.24 21.4 w F51 – Pan-STARRS 1, Haleakala MPS 635368
2015 10 13.38795 00 24 06.955 +01 15 28.89 21.5 w F51 – Pan-STARRS 1, Haleakala MPS 635368
2015 11 02.31357 00 11 21.570 +00 22 04.71 21.5 w F51 – Pan-STARRS 1, Haleakala MPS 645045
2015 11 02.32530 00 11 21.230 +00 22 03.70 21.8 w F51 – Pan-STARRS 1, Haleakala MPS 645045
2015 11 02.33716 00 11 20.890 +00 22 02.87 21.7 w F51 – Pan-STARRS 1, Haleakala MPS 645045
2015 11 02.34898 00 11 20.530 +00 22 01.56 21.7 w F51 – Pan-STARRS 1, Haleakala MPS 645045
2016 12 25.51737 07 01 19.434 +28 20 32.96 20.8 w F51 – Pan-STARRS 1, Haleakala MPS 755751
2016 12 25.52768 07 01 18.801 +28 20 34.12 20.9 w F51 – Pan-STARRS 1, Haleakala MPS 755751
2016 12 25.53797 07 01 18.166 +28 20 35.50 20.8 w F51 – Pan-STARRS 1, Haleakala MPS 755751
2017 01 05.26981 06 50 17.25 +28 39 01.8 21.0 V G96 – Mt. Lemmon Survey MPS 758866
2017 01 05.27639 06 50 16.84 +28 39 02.7 21.0 V G96 – Mt. Lemmon Survey MPS 758866
2017 01 05.28143 06 50 16.54 +28 39 02.7 21.1 V G96 – Mt. Lemmon Survey MPS 758866
